DLH7R ESSA-EDDH

Flight info

Callsign DLH7R
Flight time 1h 11m
Altitude 38000
Route NOSLI N850 ABAMA DCT GIMRU T503 MICOS N850 BOGMU BOGMU3P
Aircraft A320/M-SDE3FGHIRWY/LB1

Departure

Time 2026-04-23 15:21
Airport Stockholm-Arlanda Airport (ESSA)

Arrival

Time 2026-04-23 16:32
Airport Hamburg Helmut Schmidt Airport (EDDH)
Time Latitude Longitude Altitude Speed Heading
2026-04-23 14:57 59.65500 17.93699 138 ft 0 kts 255°
2026-04-23 14:57 59.65500 17.93700 138 ft 0 kts 255°
2026-04-23 15:15 59.65504 17.93725 138 ft 2 kts 255°
2026-04-23 15:15 59.65508 17.93758 138 ft 2 kts 255°
2026-04-23 15:15 59.65513 17.93791 138 ft 2 kts 255°
2026-04-23 15:16 59.65517 17.93823 138 ft 2 kts 255°
2026-04-23 15:16 59.65520 17.93856 138 ft 2 kts 296°
2026-04-23 15:16 59.65509 17.93878 138 ft 0 kts
2026-04-23 15:18 59.65522 17.93880 138 ft 8 kts
2026-04-23 15:18 59.65581 17.93838 138 ft 7 kts 327°
2026-04-23 15:19 59.65587 17.93749 138 ft 8 kts 254°
2026-04-23 15:19 59.65569 17.93609 138 ft 19 kts 256°
2026-04-23 15:19 59.65555 17.93329 138 ft 16 kts 312°
2026-04-23 15:19 59.65651 17.93336 138 ft 15 kts 39°
2026-04-23 15:20 59.65705 17.93425 138 ft 15 kts 45°
2026-04-23 15:20 59.65788 17.93607 138 ft 12 kts 47°
2026-04-23 15:20 59.65863 17.93793 137 ft 28 kts 77°
2026-04-23 15:20 59.65935 17.94284 140 ft 35 kts 74°
2026-04-23 15:21 59.66043 17.95173 136 ft 102 kts 76°
2026-04-23 15:21 59.66274 17.96920 201 ft 153 kts 73°
2026-04-23 15:21 59.66534 17.98922 901 ft 148 kts 71°
2026-04-23 15:21 59.66769 18.00892 1621 ft 147 kts 72°
2026-04-23 15:22 59.67003 18.02931 2122 ft 159 kts 71°
2026-04-23 15:22 59.67408 18.04892 2822 ft 151 kts 50°
2026-04-23 15:22 59.68097 18.06404 3421 ft 147 kts 30°
2026-04-23 15:22 59.69048 18.07007 3897 ft 149 kts 358°
2026-04-23 15:23 59.70133 18.06872 4251 ft 163 kts 351°
2026-04-23 15:23 59.71302 18.06539 4662 ft 176 kts 348°
2026-04-23 15:23 59.72531 18.06070 5140 ft 183 kts 346°
2026-04-23 15:23 59.73803 18.05451 5612 ft 194 kts 343°
2026-04-23 15:24 59.75150 18.04685 6096 ft 211 kts 342°
2026-04-23 15:24 59.76546 18.03521 6566 ft 232 kts 328°
2026-04-23 15:24 59.77759 18.01274 7026 ft 246 kts 311°
2026-04-23 15:24 59.78815 17.98574 7451 ft 249 kts 311°
2026-04-23 15:25 59.79677 17.95554 7915 ft 259 kts 291°
2026-04-23 15:25 59.79795 17.91914 8378 ft 275 kts 264°
2026-04-23 15:25 59.78937 17.88405 8914 ft 298 kts 232°
2026-04-23 15:25 59.77189 17.86032 9774 ft 312 kts 209°
2026-04-23 15:26 59.75178 17.84168 10348 ft 329 kts 208°
2026-04-23 15:26 59.73014 17.82270 10686 ft 351 kts 207°
2026-04-23 15:26 59.70741 17.80325 11347 ft 359 kts 207°
2026-04-23 15:26 59.68428 17.78355 12120 ft 364 kts 207°
2026-04-23 15:27 59.66082 17.76347 12889 ft 369 kts 207°
2026-04-23 15:27 59.63708 17.74295 13649 ft 374 kts 208°
2026-04-23 15:27 59.61308 17.72201 14313 ft 379 kts 208°
2026-04-23 15:27 59.58909 17.70100 14926 ft 385 kts 208°
2026-04-23 15:28 59.56443 17.67942 15531 ft 391 kts 208°
2026-04-23 15:28 59.53942 17.65760 16124 ft 396 kts 207°
2026-04-23 15:28 59.51405 17.63554 16743 ft 401 kts 207°
2026-04-23 15:28 59.48832 17.61328 17345 ft 407 kts 207°
2026-04-23 15:29 59.46226 17.59075 17944 ft 412 kts 207°
2026-04-23 15:29 59.43579 17.56787 18508 ft 418 kts 207°
2026-04-23 15:29 59.41014 17.54138 19033 ft 416 kts 219°
2026-04-23 15:29 59.38670 17.50785 19583 ft 418 kts 221°
2026-04-23 15:30 59.36320 17.47373 20148 ft 421 kts 221°
2026-04-23 15:30 59.33958 17.43932 20707 ft 424 kts 221°
2026-04-23 15:30 59.31582 17.40471 21255 ft 427 kts 221°
2026-04-23 15:30 59.29180 17.36983 21773 ft 431 kts 221°
2026-04-23 15:31 59.26765 17.33484 22292 ft 434 kts 221°
2026-04-23 15:31 59.24323 17.29956 22803 ft 438 kts 220°
2026-04-23 15:31 59.21861 17.26414 23313 ft 441 kts 220°
2026-04-23 15:31 59.19406 17.22890 23774 ft 445 kts 220°
2026-04-23 15:32 59.16900 17.19294 24196 ft 447 kts 220°
2026-04-23 15:32 59.14379 17.15688 24643 ft 450 kts 221°
2026-04-23 15:32 59.11845 17.12066 25071 ft 452 kts 221°
2026-04-23 15:32 59.09304 17.08435 25508 ft 454 kts 221°
2026-04-23 15:33 59.06751 17.04795 25932 ft 456 kts 221°
2026-04-23 15:33 59.04181 17.01148 26336 ft 458 kts 222°
2026-04-23 15:33 59.01603 16.97497 26756 ft 460 kts 222°
2026-04-23 15:33 58.99011 16.93832 27152 ft 463 kts 222°
2026-04-23 15:34 58.96402 16.90150 27554 ft 465 kts 222°
2026-04-23 15:34 58.93781 16.86454 27950 ft 467 kts 222°
2026-04-23 15:34 58.91144 16.82740 28352 ft 469 kts 223°
2026-04-23 15:34 58.88497 16.79017 28742 ft 472 kts 223°
2026-04-23 15:35 58.85836 16.75285 29123 ft 474 kts 223°
2026-04-23 15:35 58.83158 16.71537 29501 ft 476 kts 223°
2026-04-23 15:35 58.80505 16.67834 29843 ft 478 kts 223°
2026-04-23 15:35 58.77799 16.64069 30202 ft 480 kts 223°
2026-04-23 15:36 58.75078 16.60292 30497 ft 483 kts 223°
2026-04-23 15:36 58.72350 16.56513 30789 ft 483 kts 223°
2026-04-23 15:36 58.69619 16.52738 31127 ft 484 kts 223°
2026-04-23 15:36 58.66885 16.48959 31429 ft 485 kts 223°
2026-04-23 15:37 58.64141 16.45168 31728 ft 486 kts 223°
2026-04-23 15:37 58.62321 16.42658 31993 ft 485 kts 223°
2026-04-23 15:37 58.59580 16.38882 32394 ft 484 kts 223°
2026-04-23 15:37 58.56846 16.35125 32783 ft 483 kts 223°
2026-04-23 15:38 58.54109 16.31377 33135 ft 483 kts 223°
2026-04-23 15:38 58.50486 16.26434 33616 ft 483 kts 223°
2026-04-23 15:38 58.47753 16.22712 33993 ft 482 kts 223°
2026-04-23 15:38 58.45905 16.20199 34207 ft 482 kts 223°
2026-04-23 15:39 58.43177 16.16487 34543 ft 482 kts 223°
2026-04-23 15:39 58.40446 16.12774 34851 ft 481 kts 223°
2026-04-23 15:39 58.37720 16.09079 35164 ft 481 kts 223°
2026-04-23 15:39 58.35023 16.05436 35465 ft 480 kts 223°
2026-04-23 15:40 58.32298 16.01761 35749 ft 480 kts 223°
2026-04-23 15:40 58.29574 15.98093 36032 ft 478 kts 222°
2026-04-23 15:40 58.26865 15.94453 36381 ft 476 kts 222°
2026-04-23 15:40 58.24166 15.90828 36686 ft 474 kts 222°
2026-04-23 15:41 58.21473 15.87224 36960 ft 474 kts 222°
2026-04-23 15:41 58.18778 15.83628 37234 ft 473 kts 221°
2026-04-23 15:41 58.16088 15.80047 37500 ft 472 kts 221°
2026-04-23 15:41 58.13399 15.76471 37753 ft 472 kts 221°
2026-04-23 15:42 58.10714 15.72902 38002 ft 471 kts 221°
2026-04-23 15:42 58.05352 15.65794 38064 ft 468 kts 221°
2026-04-23 15:43 58.00047 15.58790 38099 ft 464 kts 221°
2026-04-23 15:43 57.94796 15.51744 38098 ft 462 kts 223°
2026-04-23 15:44 57.89627 15.44554 38097 ft 462 kts 223°
2026-04-23 15:44 57.84511 15.37401 38056 ft 462 kts 223°
2026-04-23 15:45 57.79337 15.30257 38111 ft 461 kts 223°
2026-04-23 15:45 57.74160 15.23182 38118 ft 460 kts 223°
2026-04-23 15:46 57.68989 15.16158 38117 ft 459 kts 223°
2026-04-23 15:46 57.63829 15.09146 38117 ft 458 kts 223°
2026-04-23 15:47 57.58670 15.02146 38113 ft 458 kts 223°
2026-04-23 15:47 57.53507 14.95179 38094 ft 458 kts 222°
2026-04-23 15:48 57.48340 14.88245 38103 ft 457 kts 222°
2026-04-23 15:48 57.43208 14.81377 38105 ft 457 kts 222°
2026-04-23 15:49 57.38044 14.74491 38106 ft 457 kts 222°
2026-04-23 15:49 57.32877 14.67617 38087 ft 457 kts 222°
2026-04-23 15:50 57.27713 14.60760 38095 ft 457 kts 222°
2026-04-23 15:50 57.22539 14.53941 38101 ft 457 kts 221°
2026-04-23 15:51 57.17361 14.47140 38100 ft 456 kts 221°
2026-04-23 15:51 57.12194 14.40352 38100 ft 456 kts 221°
2026-04-23 15:52 57.07066 14.33635 38089 ft 456 kts 221°
2026-04-23 15:52 57.01885 14.26891 38060 ft 457 kts 221°
2026-04-23 15:53 56.96698 14.20177 38110 ft 456 kts 221°
2026-04-23 15:53 56.91524 14.13492 38120 ft 454 kts 221°
2026-04-23 15:54 56.86357 14.06840 38112 ft 454 kts 221°
2026-04-23 15:54 56.81194 14.00217 38104 ft 453 kts 220°
2026-04-23 15:55 56.76030 13.93607 38096 ft 453 kts 221°
2026-04-23 15:55 56.70872 13.87007 38090 ft 453 kts 220°
2026-04-23 15:56 56.65703 13.80433 38111 ft 453 kts 220°
2026-04-23 15:56 56.60523 13.73873 38096 ft 454 kts 220°
2026-04-23 15:57 56.55328 13.67320 38093 ft 455 kts 220°
2026-04-23 15:57 56.50115 13.60773 38113 ft 456 kts 220°
2026-04-23 15:58 56.44893 13.54229 38113 ft 457 kts 220°
2026-04-23 15:58 56.39697 13.47732 38122 ft 457 kts 220°
2026-04-23 15:59 56.34461 13.41221 38126 ft 457 kts 219°
2026-04-23 15:59 56.29218 13.34723 38142 ft 457 kts 219°
2026-04-23 16:00 56.23976 13.28233 38134 ft 457 kts 219°
2026-04-23 16:00 56.18739 13.21760 38123 ft 456 kts 219°
2026-04-23 16:01 56.13504 13.15333 38139 ft 455 kts 219°
2026-04-23 16:01 56.08283 13.08945 38166 ft 454 kts 218°
2026-04-23 16:02 56.03068 13.02570 38176 ft 454 kts 218°
2026-04-23 16:02 55.97885 12.96272 38175 ft 453 kts 218°
2026-04-23 16:03 55.92668 12.89951 38177 ft 453 kts 218°
2026-04-23 16:03 55.87453 12.83646 38172 ft 453 kts 218°
2026-04-23 16:04 55.82237 12.77370 38176 ft 452 kts 218°
2026-04-23 16:04 55.77024 12.71116 38177 ft 452 kts 218°
2026-04-23 16:05 55.72690 12.65925 38177 ft 452 kts 218°
2026-04-23 16:05 55.66584 12.58638 38177 ft 452 kts 218°
2026-04-23 16:06 55.61364 12.52439 38174 ft 452 kts 217°
2026-04-23 16:06 55.56150 12.46257 38177 ft 451 kts 217°
2026-04-23 16:07 55.50963 12.40123 38182 ft 451 kts 217°
2026-04-23 16:07 55.45745 12.33983 38182 ft 451 kts 217°
2026-04-23 16:08 55.40511 12.27851 38182 ft 451 kts 217°
2026-04-23 16:08 55.35299 12.21741 38187 ft 450 kts 217°
2026-04-23 16:09 55.30088 12.15666 38197 ft 449 kts 217°
2026-04-23 16:09 55.24879 12.09633 38194 ft 448 kts 217°
2026-04-23 16:10 55.19675 12.03615 38192 ft 448 kts 217°
2026-04-23 16:10 55.14483 11.97611 38189 ft 448 kts 216°
2026-04-23 16:11 55.09284 11.91612 38184 ft 448 kts 216°
2026-04-23 16:11 55.06673 11.88606 37510 ft 454 kts 216°
2026-04-23 16:11 55.04000 11.85538 36237 ft 465 kts 216°
2026-04-23 16:11 55.01297 11.82447 35090 ft 464 kts 216°
2026-04-23 16:12 54.98612 11.79392 34390 ft 454 kts 216°
2026-04-23 16:12 54.96005 11.76439 33836 ft 440 kts 216°
2026-04-23 16:12 54.93485 11.73579 33314 ft 426 kts 216°
2026-04-23 16:12 54.91047 11.70805 32811 ft 413 kts 216°
2026-04-23 16:13 54.88713 11.68148 32321 ft 401 kts 216°
2026-04-23 16:13 54.84084 11.62901 31380 ft 394 kts 216°
2026-04-23 16:13 54.81792 11.60304 30916 ft 393 kts 216°
2026-04-23 16:14 54.79503 11.57710 30468 ft 392 kts 216°
2026-04-23 16:14 54.77226 11.55132 29967 ft 390 kts 215°
2026-04-23 16:14 54.74956 11.52567 29542 ft 387 kts 216°
2026-04-23 16:14 54.72709 11.50036 29104 ft 384 kts 216°
2026-04-23 16:15 54.70480 11.47540 28694 ft 380 kts 215°
2026-04-23 16:15 54.68270 11.45065 28295 ft 377 kts 216°
2026-04-23 16:15 54.66077 11.42609 27862 ft 374 kts 216°
2026-04-23 16:15 54.63896 11.40169 27418 ft 372 kts 216°
2026-04-23 16:16 54.61733 11.37754 27021 ft 369 kts 216°
2026-04-23 16:16 54.59576 11.35349 26572 ft 368 kts 216°
2026-04-23 16:16 54.57432 11.32961 26150 ft 366 kts 216°
2026-04-23 16:16 54.55302 11.30578 25713 ft 364 kts 217°
2026-04-23 16:17 54.53217 11.28127 25265 ft 363 kts 218°
2026-04-23 16:17 54.51135 11.25547 24367 ft 375 kts 220°
2026-04-23 16:17 54.49013 11.22802 23381 ft 388 kts 220°
2026-04-23 16:17 54.46842 11.19936 22568 ft 394 kts 220°
2026-04-23 16:18 54.44722 11.17132 22189 ft 387 kts 220°
2026-04-23 16:18 54.42592 11.14330 21761 ft 383 kts 220°
2026-04-23 16:18 54.40481 11.11566 21294 ft 380 kts 220°
2026-04-23 16:18 54.38380 11.08836 20835 ft 377 kts 219°
2026-04-23 16:19 54.36291 11.06134 20386 ft 375 kts 219°
2026-04-23 16:19 54.34212 11.03457 19945 ft 372 kts 219°
2026-04-23 16:19 54.32164 11.00823 19260 ft 366 kts 219°
2026-04-23 16:19 54.30137 10.98214 18512 ft 363 kts 219°
2026-04-23 16:20 54.28125 10.95622 17659 ft 359 kts 219°
2026-04-23 16:20 54.26138 10.93067 16833 ft 356 kts 219°
2026-04-23 16:20 54.24166 10.90534 16039 ft 353 kts 219°
2026-04-23 16:20 54.22207 10.88020 15277 ft 350 kts 220°
2026-04-23 16:21 54.20264 10.85532 14539 ft 348 kts 219°
2026-04-23 16:21 54.18333 10.83070 13918 ft 342 kts 220°
2026-04-23 16:21 54.16461 10.80685 13502 ft 329 kts 220°
2026-04-23 16:21 54.14661 10.78396 13100 ft 317 kts 220°
2026-04-23 16:22 54.12914 10.76173 12725 ft 312 kts 220°
2026-04-23 16:22 54.11174 10.73950 12344 ft 313 kts 220°
2026-04-23 16:22 54.09428 10.71723 11948 ft 313 kts 220°
2026-04-23 16:22 54.07682 10.69504 11565 ft 314 kts 220°
2026-04-23 16:23 54.05930 10.67282 11166 ft 314 kts 221°
2026-04-23 16:23 54.04197 10.65089 10748 ft 315 kts 221°
2026-04-23 16:23 54.02440 10.62867 10353 ft 315 kts 220°
2026-04-23 16:23 54.00700 10.60668 10227 ft 308 kts 221°
2026-04-23 16:24 53.98987 10.58503 10243 ft 307 kts 221°
2026-04-23 16:24 53.97276 10.56337 10250 ft 306 kts 221°
2026-04-23 16:24 53.95566 10.54176 10072 ft 308 kts 220°
2026-04-23 16:24 53.93825 10.51978 9431 ft 309 kts 220°
2026-04-23 16:25 53.92116 10.49830 8798 ft 303 kts 220°
2026-04-23 16:25 53.90976 10.48398 8355 ft 301 kts 220°
2026-04-23 16:25 53.89325 10.46328 7705 ft 297 kts 220°
2026-04-23 16:25 53.87671 10.44256 7055 ft 294 kts 221°
2026-04-23 16:26 53.86039 10.42219 6522 ft 286 kts 221°
2026-04-23 16:26 53.84457 10.40251 5928 ft 280 kts 221°
2026-04-23 16:26 53.82933 10.38354 5676 ft 262 kts 221°
2026-04-23 16:26 53.81558 10.36486 5542 ft 249 kts 230°
2026-04-23 16:27 53.80406 10.34336 5193 ft 243 kts 236°
2026-04-23 16:27 53.79350 10.32131 4913 ft 241 kts 236°
2026-04-23 16:27 53.78290 10.29932 4596 ft 240 kts 236°
2026-04-23 16:27 53.77243 10.27785 4277 ft 233 kts 236°
2026-04-23 16:28 53.76228 10.25708 3964 ft 225 kts 236°
2026-04-23 16:28 53.75246 10.23698 3662 ft 219 kts 236°
2026-04-23 16:28 53.74289 10.21739 3381 ft 213 kts 236°
2026-04-23 16:28 53.73356 10.19831 3100 ft 208 kts 237°
2026-04-23 16:29 53.72443 10.17967 2819 ft 204 kts 237°
2026-04-23 16:29 53.71558 10.16162 2569 ft 194 kts 236°
2026-04-23 16:29 53.70711 10.14433 2294 ft 189 kts 237°
2026-04-23 16:29 53.69877 10.12731 2040 ft 187 kts 237°
2026-04-23 16:30 53.69058 10.11061 1775 ft 183 kts 236°
2026-04-23 16:30 53.68253 10.09423 1510 ft 179 kts 236°
2026-04-23 16:30 53.67478 10.07848 1286 ft 169 kts 237°
2026-04-23 16:30 53.66760 10.06394 1065 ft 154 kts 236°
2026-04-23 16:31 53.66094 10.05054 809 ft 145 kts 236°
2026-04-23 16:31 53.65468 10.03781 647 ft 139 kts 234°
2026-04-23 16:31 53.64843 10.02517 474 ft 136 kts 236°
2026-04-23 16:31 53.64256 10.01319 286 ft 130 kts 236°
2026-04-23 16:32 53.63693 10.00170 93 ft 124 kts 236°
2026-04-23 16:32 53.63186 9.99124 48 ft 103 kts 232°
2026-04-23 16:32 53.62840 9.98411 44 ft 54 kts 230°
2026-04-23 16:32 53.62697 9.98130 42 ft 20 kts 231°
2026-04-23 16:33 53.62570 9.97872 41 ft 36 kts 232°
2026-04-23 16:33 53.62450 9.97816 42 ft 15 kts 149°
2026-04-23 16:33 53.62435 9.97904 45 ft 1 kts 27°
2026-04-23 16:33 53.62444 9.97964 46 ft 26 kts 83°
2026-04-23 16:34 53.62565 9.98270 45 ft 24 kts 57°
2026-04-23 16:34 53.62661 9.98491 47 ft 23 kts 52°
2026-04-23 16:34 53.62759 9.98689 47 ft 21 kts 48°
2026-04-23 16:34 53.62852 9.98871 47 ft 20 kts 51°
2026-04-23 16:35 53.62937 9.99048 47 ft 19 kts 51°
2026-04-23 16:35 53.63018 9.99213 47 ft 18 kts 50°
2026-04-23 16:35 53.63114 9.99432 46 ft 36 kts 55°
2026-04-23 16:35 53.63267 9.99751 48 ft 32 kts 43°
2026-04-23 16:36 53.63413 10.00029 48 ft 28 kts 50°
2026-04-23 16:36 53.63447 10.00223 48 ft 11 kts 82°
2026-04-23 16:36 53.63451 10.00314 49 ft 0 kts 86°